Weather History for KSYN - February, 2013

Change the Weather History Date:

Sunday, February 24, 2013

  Actual Average (KLVN) Record (KLVN)
Temperature  
Mean Temperature 12 °F -  
Max Temperature 30 °F 31 °F 56 °F (1976)
Min Temperature -5 °F 13 °F -21 °F (1967)
Degree Days  
Heating Degree Days 52    
Moisture  
Dew Point 8 °F    
Average Humidity 80    
Maximum Humidity 89    
Minimum Humidity 64    
Precipitation  
Precipitation 0.00 in - - ()
Sea Level Pressure  
Sea Level Pressure 30.03 in    
Wind  
Wind Speed 1 mph (SSW)    
Max Wind Speed 7 mph    
Max Gust Speed -    
Visibility 10 miles    
Events      
Averages and records for this station are not official NWS values.
T = Trace of Precipitation, MM = Missing Value Source: NWS Daily Summary

Daily Weather History Graph

Daily Weather History Graph

Search for Another Location

Airport or City:

Trip Planner

Search our weather history database for the weather conditions in past years. The results will help you decide how hot, cold, wet, or windy it might be!

Date:

Astronomy

Feb. 24, 2013 Rise Set
Actual Time 6:57 AM CST 5:53 PM CST
Civil Twilight 6:28 AM CST 6:23 PM CST
Nautical Twilight 5:54 AM CST 6:56 PM CST
Astronomical Twilight 5:20 AM CST 7:30 PM CST
Moon 5:05 PM CST (2/24) 5:55 AM CST (2/24)
Length of Visible Light 11h 55m
Length of Day
10h 56m
Waxing Gibbous, 99% of the Moon is Illuminated
Feb 24
Waxing Gibbous
Feb 25
Full
Mar 4
Last Quarter
Mar 11
New
Mar 19
First Quarter

Hourly Weather History & Observations

Time (CST) Temp. Windchill Dew Point Humidity Pressure Visibility Wind Dir Wind Speed Gust Speed Precip Events Conditions
12:13 AM 1.9 °F - -2.7 °F 81% 29.95 in 10.0 mi Calm Calm - N/A   Clear
12:32 AM -0.0 °F - -4.7 °F 81% 29.95 in 10.0 mi Calm Calm - N/A   Scattered Clouds
12:52 AM 1.4 °F - -3.1 °F 81% 29.95 in 7.0 mi Calm Calm - N/A   Scattered Clouds
1:13 AM 2.8 °F -4.6 °F -1.3 °F 83% 29.96 in 7.0 mi SW 3.5 mph - N/A   Clear
1:32 AM 1.8 °F -5.8 °F -2.6 °F 82% 29.96 in 10.0 mi SSW 3.5 mph - N/A   Clear
1:52 AM -1.5 °F -9.5 °F -6.3 °F 80% 29.97 in 10.0 mi South 3.5 mph - N/A   Clear
2:13 AM 0.1 °F - -4.2 °F 82% 29.97 in 10.0 mi Calm Calm - N/A   Clear
2:32 AM -0.4 °F - -4.9 °F 81% 29.97 in 10.0 mi Calm Calm - N/A   Clear
2:53 AM -0.9 °F - -5.8 °F 80% 29.97 in 10.0 mi Calm Calm - N/A   Clear
3:12 AM -0.9 °F - -5.4 °F 81% 29.97 in 10.0 mi Calm Calm - N/A   Clear
3:33 AM 1.8 °F - -3.1 °F 80% 29.97 in 10.0 mi Calm Calm - N/A   Clear
3:53 AM -2.2 °F - -7.2 °F 79% 29.98 in 10.0 mi Calm Calm - N/A   Clear
4:12 AM -4.9 °F -15.6 °F -10.1 °F 78% 29.99 in 10.0 mi SSW 4.6 mph - N/A   Clear
4:33 AM -1.3 °F - -5.4 °F 83% 29.98 in 10.0 mi Calm Calm - N/A   Clear
4:53 AM -2.9 °F - -7.6 °F 80% 29.99 in 10.0 mi Calm Calm - N/A   Clear
5:12 AM -2.6 °F - -7.6 °F 79% 30.00 in 10.0 mi Calm Calm - N/A   Clear
5:33 AM -4.0 °F - -8.9 °F 80% 30.00 in 10.0 mi Calm Calm - N/A   Clear
5:53 AM -5.8 °F - -11.0 °F 78% 30.00 in 10.0 mi Calm Calm - N/A   Clear
6:12 AM -3.5 °F - -8.0 °F 81% 30.00 in 10.0 mi Calm Calm - N/A   Clear
6:32 AM -3.3 °F - -8.0 °F 80% 30.00 in 10.0 mi Calm Calm - N/A   Clear
6:53 AM -5.3 °F - -10.5 °F 78% 30.02 in 10.0 mi Calm Calm - N/A   Clear
7:12 AM -4.2 °F - -9.0 °F 80% 30.02 in 10.0 mi Calm Calm - N/A   Clear
7:33 AM -4.0 °F - -9.0 °F 79% 30.03 in 10.0 mi Calm Calm - N/A   Clear
7:52 AM -4.0 °F - -8.9 °F 80% 30.04 in 10.0 mi Calm Calm - N/A   Clear
8:13 AM -1.8 °F - -6.3 °F 81% 30.04 in 10.0 mi Calm Calm - N/A   Clear
8:33 AM 0.7 °F - -4.0 °F 81% 30.04 in 10.0 mi Calm Calm - N/A   Clear
8:52 AM 1.8 °F - -3.1 °F 80% 30.04 in 10.0 mi Calm Calm - N/A   Clear
9:13 AM 3.7 °F - -0.8 °F 82% 30.04 in 10.0 mi Calm Calm - N/A   Clear
9:33 AM 5.4 °F - 1.4 °F 84% 30.05 in 10.0 mi Calm Calm - N/A   Clear
9:52 AM 7.0 °F - 3.0 °F 84% 30.05 in 10.0 mi Calm Calm - N/A   Clear
10:13 AM 8.6 °F - 4.8 °F 85% 30.05 in 10.0 mi Calm Calm - N/A   Clear
10:33 AM 11.3 °F - 7.7 °F 85% 30.05 in 10.0 mi Calm Calm - N/A   Clear
10:52 AM 13.3 °F - 9.9 °F 86% 30.06 in 10.0 mi Calm Calm - N/A   Clear
11:13 AM 16.9 °F - 13.5 °F 86% 30.06 in 10.0 mi Calm Calm - N/A   Clear
11:33 AM 18.1 °F - 14.7 °F 86% 30.06 in 10.0 mi Calm Calm - N/A   Clear
11:52 AM 19.4 °F - 15.8 °F 86% 30.07 in 10.0 mi Calm Calm - N/A   Clear
12:13 PM 22.6 °F - 16.2 °F 76% 30.06 in 10.0 mi Calm Calm - N/A   Clear
12:32 PM 24.4 °F - 16.5 °F 72% 30.06 in 10.0 mi Calm Calm - N/A   Clear
12:52 PM 27.1 °F - 18.1 °F 69% 30.06 in 10.0 mi Calm Calm - N/A   Clear
1:13 PM 28.0 °F 24.2 °F 18.3 °F 67% 30.06 in 10.0 mi SW 3.5 mph - N/A   Clear
1:32 PM 28.4 °F 24.6 °F 19.0 °F 68% 30.05 in 10.0 mi SW 3.5 mph - N/A   Clear
1:53 PM 29.1 °F 24.1 °F 19.8 °F 68% 30.05 in 10.0 mi SW 4.6 mph - N/A   Clear
2:13 PM 29.1 °F 23.0 °F 20.8 °F 71% 30.05 in 10.0 mi SW 5.8 mph - N/A   Clear
2:32 PM 29.3 °F 23.2 °F 21.0 °F 71% 30.04 in 10.0 mi SSW 5.8 mph - N/A   Clear
2:53 PM 30.2 °F 23.4 °F 21.2 °F 69% 30.04 in 10.0 mi SSW 6.9 mph - N/A   Clear
3:13 PM 30.7 °F 26.0 °F 21.0 °F 67% 30.04 in 10.0 mi SSW 4.6 mph - N/A   Clear
3:32 PM 29.7 °F 22.8 °F 20.3 °F 68% 30.04 in 10.0 mi SW 6.9 mph - N/A   Clear
3:53 PM 27.7 °F 21.3 °F 19.2 °F 71% 30.04 in 10.0 mi SW 5.8 mph - N/A   Scattered Clouds
4:12 PM 28.8 °F 25.0 °F 19.4 °F 68% 30.03 in 10.0 mi SW 3.5 mph - N/A   Scattered Clouds
4:33 PM 30.6 °F - 19.8 °F 64% 30.03 in 10.0 mi Calm Calm - N/A   Clear
4:53 PM 30.0 °F - 19.4 °F 65% 30.04 in 10.0 mi Calm Calm - N/A   Clear
5:12 PM 26.1 °F - 18.3 °F 73% 30.04 in 10.0 mi Calm Calm - N/A   Clear
5:33 PM 25.9 °F - 18.7 °F 74% 30.05 in 10.0 mi Calm Calm - N/A   Mostly Cloudy
5:52 PM 25.2 °F - 19.0 °F 78% 30.05 in 10.0 mi Calm Calm - N/A   Overcast
6:12 PM 23.7 °F - 18.5 °F 80% 30.05 in 10.0 mi Calm Calm - N/A   Scattered Clouds
6:33 PM 24.6 °F - 18.9 °F 79% 30.05 in 10.0 mi Calm Calm - N/A   Clear
6:52 PM 22.6 °F - 17.6 °F 81% 30.05 in 10.0 mi Calm Calm - N/A   Clear
7:13 PM 18.5 °F - 15.3 °F 87% 30.06 in 7.0 mi Calm Calm - N/A   Clear
7:33 PM 17.6 °F - 14.5 °F 88% 30.06 in 5.0 mi Calm Calm - N/A   Clear
7:52 PM 16.2 °F - 13.3 °F 88% 30.05 in 1.2 mi Calm Calm - N/A   Mist
8:13 PM 14.0 °F - 10.6 °F 86% 30.05 in 7.0 mi Calm Calm - N/A   Mostly Cloudy
8:32 PM 14.7 °F - 11.8 °F 88% 30.06 in 10.0 mi Calm Calm - N/A   Overcast
8:53 PM 17.6 °F 12.3 °F 14.9 °F 89% 30.06 in 10.0 mi SSW 3.5 mph - N/A   Overcast
9:12 PM 19.4 °F - 16.7 °F 89% 30.06 in 10.0 mi Calm Calm - N/A   Overcast
9:32 PM 20.1 °F - 17.2 °F 89% 30.07 in 10.0 mi Calm Calm - N/A   Overcast
9:53 PM 21.9 °F - 18.5 °F 87% 30.07 in 10.0 mi Calm Calm - N/A   Overcast
10:12 PM 22.5 °F 17.8 °F 18.5 °F 85% 30.08 in 10.0 mi South 3.5 mph - N/A   Overcast
10:33 PM 23.2 °F - 19.0 °F 84% 30.08 in 10.0 mi Calm Calm - N/A   Overcast
10:52 PM 23.9 °F - 19.2 °F 82% 30.08 in 10.0 mi Calm Calm - N/A   Overcast
11:13 PM 24.3 °F - 19.8 °F 83% 30.08 in 10.0 mi Calm Calm - N/A   Overcast
11:33 PM 23.9 °F - 20.1 °F 85% 30.08 in 10.0 mi Calm Calm - N/A   Overcast
11:52 PM 23.9 °F - 20.1 °F 85% 30.07 in 10.0 mi Calm Calm - N/A   Overcast